This demonstration page uses our WeatherBlox Daily Observations layout. Learn more.

Left ArrowRight Arrow

40.92945, -100.16068

Hourly Observations for October 11, 2018

Temp ( °F °C ) Dew Point ( °F °C ) Humidity (%) Winds ( mph kmh ) Pressure ( in mb ) Visibility ( mi km ) Precip ( " mm )
12:15 am 00:15 Clear 31 -0.6 29 -1.9 91 91 NNW 3 6 30.24 1024 10 16.0934 0 0
12:35 am 00:35 Clear 32 -0.2 30 -1.3 92 92 NW 6 9 30.24 1024 10 16.0934 0 0
12:55 am 00:55 Clear 31 -0.5 29 -1.6 92 92 W 5 7 30.24 1024 10 16.0934 0 0
1:15 am 01:15 Clear 32 -0.2 29 -1.5 91 91 W 6 9 30.27 1025 10 16.0934 0 0
1:35 am 01:35 Clear 31 -0.7 28 -2.2 90 90 NW 6 9 30.27 1025 10 16.0934 0 0
1:55 am 01:55 Clear 30 -1 28 -2.2 92 92 W 6 9 30.3 1026 10 16.0934 0 0
2:15 am 02:15 Clear 31 -0.8 27 -2.6 88 88 W 6 9 30.27 1025 10 16.0934 0 0
2:35 am 02:35 Clear 30 -1 27 -2.7 88 88 W 7 11 30.3 1026 10 16.0934 0 0
2:55 am 02:55 Clear 30 -1 27 -3 86 86 W 6 9 30.3 1026 10 16.0934 0 0
3:15 am 03:15 Clear 30 -1.2 26 -3.1 87 87 W 7 11 30.3 1026 10 16.0934 0 0
3:35 am 03:35 Clear 30 -1.1 26 -3.2 86 86 W 7 11 30.33 1027 10 16.0934 0 0
3:55 am 03:55 Clear 29 -1.7 26 -3.5 88 88 W 6 9 30.3 1026 10 16.0934 0 0
4:15 am 04:15 Clear 28 -2 26 -3.5 90 90 NW 6 9 30.3 1026 10 16.0934 0 0
4:35 am 04:35 Clear 28 -2.3 25 -4 88 88 WNW 3 6 30.3 1026 10 16.0934 0 0
4:55 am 04:55 Clear 28 -2.4 25 -4 89 89 NW 5 7 30.3 1026 10 16.0934 0 0
5:15 am 05:15 Clear 28 -2.4 25 -4 89 89 NW 5 7 30.3 1026 10 16.0934 0 0
5:35 am 05:35 Clear 28 -2.5 25 -4 90 90 NW 6 9 30.3 1026 10 16.0934 0 0
5:55 am 05:55 Clear 27 -2.6 25 -4 90 90 WNW 6 9 30.33 1027 10 16.0934 0 0
6:15 am 06:15 Clear 27 -2.8 25 -4.1 91 91 WNW 5 7 30.3 1026 10 16.0934 0 0
6:35 am 06:35 Clear 27 -2.6 25 -4 90 90 W 5 7 30.3 1026 10 16.0934 0 0
6:55 am 06:55 Clear 27 -2.9 24 -4.2 91 91 W 6 9 30.3 1026 10 16.0934 0 0
7:15 am 07:15 Clear 26 -3.1 24 -4.5 90 90 W 5 7 30.33 1027 10 16.0934 0 0
7:35 am 07:35 Clear 27 -3 25 -4.1 92 92 Calm 30.33 1027 10 16.0934 0 0
7:55 am 07:55 Sunny 27 -2.7 25 -4 91 91 W 5 7 30.33 1027 10 16.0934 0 0
8:15 am 08:15 Sunny 28 -2.4 26 -3.5 92 92 W 3 6 30.33 1027 10 16.0934 0 0
8:35 am 08:35 Sunny 30 -1.3 28 -2.5 92 92 Calm 30.33 1027 10 16.0934 0 0
8:55 am 08:55 Sunny 31 -0.3 28 -2.1 88 88 W 3 6 30.3 1026 10 16.0934 0 0
9:15 am 09:15 Sunny 33 0.6 29 -1.5 86 86 W 5 7 30.3 1026 10 16.0934 0 0
9:35 am 09:35 Sunny 35 1.6 31 -0.7 85 85 W 5 7 30.3 1026 10 16.0934 0 0
9:55 am 09:55 Sunny 37 2.6 31 -0.6 80 80 W 6 9 30.27 1025 10 16.0934 0 0
10:15 am 10:15 Sunny 38 3.4 31 -0.8 74 74 WNW 8 13 30.27 1025 10 16.0934 0 0
10:35 am 10:35 Sunny 40 4.3 30 -0.9 69 69 NW 6 9 30.27 1025 10 16.0934 0 0
10:55 am 10:55 Sunny 41 4.9 30 -1 66 66 NNW 6 9 30.27 1025 10 16.0934 0 0
11:15 am 11:15 Sunny 42 5.4 30 -1.2 63 63 NW 6 9 30.27 1025 10 16.0934 0 0
11:35 am 11:35 Sunny 43 6.1 30 -1.1 60 60 NW 7 11 30.24 1024 10 16.0934 0 0
11:55 am 11:55 Sunny 43 6.2 30 -1.3 59 59 NW 3 6 30.24 1024 10 16.0934 0 0
12:15 pm 12:15 Sunny 46 7.6 32 -0.2 58 58 W 5 7 30.21 1023 10 16.0934 0 0
12:35 pm 12:35 Sunny 46 7.8 31 -0.4 56 56 Calm 30.21 1023 10 16.0934 0 0
12:55 pm 12:55 Sunny 46 8 31 -0.6 55 55 W 5 7 30.21 1023 10 16.0934 0 0
1:15 pm 13:15 Sunny 47 8.5 32 -0.1 55 55 WNW 5 7 30.18 1022 10 16.0934 0 0
1:35 pm 13:35 Sunny 48 8.7 31 -0.6 52 52 WNW 3 6 30.15 1021 10 16.0934 0 0
1:55 pm 13:55 Sunny 49 9.5 32 -0.2 51 51 SSW 6 9 30.15 1021 10 16.0934 0 0
2:15 pm 14:15 Sunny 49 9.6 32 -0.1 51 51 WNW 3 6 30.15 1021 10 16.0934 0 0
2:35 pm 14:35 Sunny 50 10.1 32 0 50 50 SSW 8 13 30.12 1020 10 16.0934 0 0
2:55 pm 14:55 Sunny 51 10.4 32 0 49 49 SE 7 11 30.12 1020 10 16.0934 0 0
3:15 pm 15:15 Sunny 50 9.8 31 -0.5 49 49 Calm 30.12 1020 10 16.0934 0 0
3:35 pm 15:35 Sunny 50 10.2 30 -0.9 46 46 S 3 6 30.09 1019 10 16.0934 0 0
3:55 pm 15:55 Mostly Cloudy 50 10.2 31 -0.6 47 47 SSW 7 11 30.09 1019 10 16.0934 0 0
4:15 pm 16:15 Cloudy 50 10 33 0.3 51 51 SW 10 17 30.09 1019 10 16.0934 0 0
4:35 pm 16:35 Cloudy 49 9.5 33 0.6 54 54 SSW 10 17 30.09 1019 10 16.0934 0 0
4:55 pm 16:55 Cloudy 49 9.3 33 0.3 54 54 SSW 10 17 30.09 1019 10 16.0934 0 0
5:15 pm 17:15 Cloudy 48 9 32 0.2 54 54 SSW 10 17 30.06 1018 10 16.0934 0 0
5:35 pm 17:35 Cloudy 47 8.5 32 0.2 56 56 SSW 9 15 30.06 1018 10 16.0934 0 0
5:55 pm 17:55 Cloudy 46 8 32 0 57 57 SSW 10 17 30.06 1018 10 16.0934 0 0
6:15 pm 18:15 Cloudy 46 7.8 32 0.1 59 59 SSW 7 11 30.06 1018 10 16.0934 0 0
6:35 pm 18:35 Cloudy 46 7.7 32 0.1 59 59 SSW 8 13 30.06 1018 10 16.0934 0 0
6:55 pm 18:55 Cloudy 46 7.5 32 0.2 60 60 SSW 6 9 30.06 1018 10 16.0934 0 0
7:15 pm 19:15 Cloudy 45 7.2 33 0.4 62 62 SSW 7 11 30.06 1018 10 16.0934 0 0
7:35 pm 19:35 Cloudy 45 7 33 0.8 65 65 SSW 6 9 30.09 1019 10 16.0934 0 0
7:55 pm 19:55 Cloudy 45 7 33 0.6 64 64 SSW 7 11 30.09 1019 10 16.0934 0 0
8:15 pm 20:15 Cloudy 44 6.8 33 0.7 65 65 SSW 5 7 30.09 1019 10 16.0934 0 0
8:35 pm 20:35 Cloudy 44 6.7 34 0.9 67 67 SW 3 6 30.12 1020 10 16.0934 0 0
8:55 pm 20:55 Cloudy 44 6.6 34 1 68 68 SSW 3 6 30.12 1020 10 16.0934 0 0
9:15 pm 21:15 Cloudy 44 6.5 33 0.8 67 67 Calm 30.12 1020 10 16.0934 0 0
9:35 pm 21:35 Cloudy 44 6.5 33 0.7 67 67 SSW 3 6 30.09 1019 10 16.0934 0 0
9:55 pm 21:55 Cloudy 44 6.5 34 0.9 68 68 SW 7 11 30.12 1020 10 16.0934 0 0
10:15 pm 22:15 Cloudy 44 6.4 33 0.8 68 68 SW 5 7 30.12 1020 10 16.0934 0 0
10:35 pm 22:35 Cloudy 43 6.3 33 0.7 68 68 SSW 7 11 30.12 1020 10 16.0934 0 0
10:55 pm 22:55 Cloudy 44 6.4 33 0.6 67 67 SSW 5 7 30.12 1020 10 16.0934 0 0
11:15 pm 23:15 Cloudy with Light Rain 43 5.9 35 1.5 74 74 SSW 9 15 30.12 1020 10 16.0934 0 0
11:35 pm 23:35 Cloudy with Rain 41 4.8 35 1.6 80 80 SW 7 11 30.12 1020 10 16.0934 0.03 0.762
11:55 pm 23:55 Cloudy with Rain 39 4.1 35 1.8 85 85 SSW 6 9 30.09 1019 10 16.0934 0.06 1.524

Powered by AerisWeather